1998-067VG

Last updated on Thu Apr 27 2023 00:02:04 GMT+0000 (Coordinated Universal Time)

1 56315U 98067VG 23116.42483676 .00007730 00000+0 13837-3 0 9994 2 56315 51.6379 225.0496 0007899 249.4438 148.3597 15.50986537 318
UTC large
Height (km)
Speed (km/s)
/
Latitude / Longitude
Inclination (degrees)
Orbital Period (minutes)
Azimuth
Elevation
Range (km)
Doppler Factor

Next 0 passes for location: London (51.5072 / 0.1276)

Sorry there are no passes over London.